#timestamp,LO_Frequency,Hit,StdDev 
1542776415.8,286047002.7,N
1542776435.6,286046998.2,N
1542776455.4,286047000.8,N
1542776475.3,286046999.9,N
1542776495.1,286046999.7,N
1542776515.9,286047002.6,N
1542776535.7,286047002.8,N
1542776555.5,286047002.3,N
1542776575.4,286047002.8,N
1542776595.2,286047004.3,N
1542776615.0,286047002.2,N
1542776616.0,286047002.2,N
1542776635.8,286047000.1,N
1542776655.6,286047000.3,N
1542776675.5,286047000.5,N
1542776695.3,286047000.6,N
1542776715.1,286047000.8,N
1542776735.9,286046998.4,N
1542776755.7,286046999.9,N
1542776775.6,286046999.9,N
1542776795.4,286047000.5,N
1542776815.2,286046998.8,N
1542776835.1,286047000.2,N
1542776836.0,286047000.2,N
1542776855.8,286047000.0,N
1542776875.7,286047000.2,N
1542776895.5,286047000.1,N
1542776915.3,286046999.9,N
1542776935.2,286047000.9,N
1542776955.0,286047001.1,N
1542776955.9,286047001.1,N
1542776975.7,286047001.0,N
1542776995.6,286046998.8,N
1542777015.4,286046999.4,N
1542777035.3,286046998.0,N
1542777055.1,286046997.6,N
1542777075.8,286046995.5,Y
1542777095.7,286046995.2,P
1542777115.5,286046996.3,N
1542777135.4,286046996.3,N
1542777155.2,286046993.5,Y
1542777175.0,286046997.9,P
1542777175.9,286046997.9,P
1542777195.8,286046997.8,P
1542777215.6,286046997.0,Y
1542777235.5,286047000.6,P
1542777255.3,286047001.2,N
1542777275.1,286046998.7,N
1542777295.9,286047001.1,N
1542777315.7,286046998.4,N
1542777335.6,286047001.2,N
1542777355.4,286046998.8,N
1542777375.2,286046998.8,N
1542777395.1,286046996.5,N
1542777396.0,286046996.5,N
1542777415.8,286046999.5,N
1542777435.6,286046997.0,N
1542777455.5,286046997.3,N
1542777475.3,286046995.3,N
1542777495.2,286046996.5,N
1542777515.9,286046999.3,N
1542777535.7,286046999.2,N
1542777555.6,286046999.1,N
1542777575.4,286046996.7,N
1542777595.2,286046997.7,N
1542777615.1,286046995.0,Y
1542777616.0,286046995.0,P
1542777635.8,286046999.5,N
1542777655.7,286046997.2,N
1542777675.5,286046996.6,N
1542777695.3,286046997.0,N
1542777715.2,286046999.2,N
1542777735.0,286046996.6,N
1542777735.9,286046996.6,N
1542777755.8,286046996.8,N
1542777775.6,286046996.6,N
1542777795.4,286046997.4,N
1542777815.3,286046996.2,Y
1542777835.1,286046998.6,P
1542777855.9,286046998.4,N
1542777875.7,286046998.1,P
1542777895.5,286047001.1,N
1542777915.4,286046998.5,N
1542777935.2,286046998.4,N
1542777955.0,286047000.7,N
1542777955.9,286047000.7,N
1542777975.8,286046998.8,N
1542777995.6,286046998.2,N
1542778015.5,286046998.2,N
1542778035.3,286046998.4,N
1542778055.1,286046998.9,N
1542778075.9,286047001.1,N
1542778095.7,286047000.0,N
1542778115.5,286047000.1,N
1542778135.4,286047000.8,N
1542778155.2,286047000.8,N
1542778175.1,286046999.0,N
1542778176.0,286046999.0,N
1542778195.8,286046999.4,N
1542778215.6,286046999.3,N
1542778235.5,286046998.2,N
1542778255.3,286047000.0,N
1542778275.1,286047000.9,N
1542778295.9,286047000.1,N
1542778315.7,286047000.5,N
1542778335.6,286047000.4,N
1542778355.4,286047001.1,N
1542778405.3,286047000.3,E
1542778415.2,286047001.0,N
1542778435.0,286047000.1,P
1542778435.9,286047000.1,N
1542778455.8,286047000.6,N
1542778475.6,286047002.8,Y
1542778495.4,286047002.4,P
1542778515.3,286047000.6,N
1542778535.1,286047000.2,N
1542778555.8,286046998.1,N
1542778575.7,286047000.1,N
1542778595.5,286047002.3,N
1542778615.4,286047002.0,N
1542778635.2,286047001.7,N
1542778655.0,286047003.3,N
1542778655.9,286047003.3,N
1542778675.8,286047005.7,Y
1542778695.6,286047005.0,P
1542778715.5,286047005.8,P
1542778735.3,286047003.1,N
1542778755.1,286047003.4,N
1542778775.9,286047001.3,N
1542778795.7,286047001.7,N
1542778815.5,286047001.3,N
1542778835.4,286047001.5,N
1542778855.2,286047001.4,N
1542778875.1,286047004.2,N
1542778876.0,286047004.2,N
1542778895.8,286047004.0,N
1542778915.6,286047001.4,N
1542778935.5,286047004.2,N
1542778955.3,286047004.0,N
1542778975.1,286047003.8,N
1542778995.9,286047003.0,N
1542779015.7,286047003.6,N
1542779035.6,286047005.9,Y
1542779055.4,286047002.7,P
1542779075.2,286047002.2,P
1542779095.1,286047001.8,P
1542779096.0,286047001.8,Y
1542779115.8,286047000.2,P
1542779135.6,286047000.5,N
1542779155.5,286047002.5,N
1542779175.3,286047000.1,N
1542779195.2,286047004.2,Y
1542779215.9,286046999.7,P
1542779235.7,286047000.7,N
1542779255.6,286047000.1,N
1542779275.4,286047000.8,N
1542779295.3,286047000.5,N
1542779315.1,286047000.6,N
1542779316.0,286047000.6,N
1542779335.8,286047002.6,Y
1542779355.7,286046999.7,P
1542779375.5,286047004.4,P
1542779395.3,286047003.1,N
1542779415.2,286047005.7,N
1542779435.0,286047005.9,N
1542779435.9,286047005.9,N
1542779455.8,286047004.2,N
1542779475.6,286047004.0,N
1542779495.4,286047004.1,N
1542779515.3,286047003.2,N
1542779535.1,286047001.7,N
1542779555.8,286047003.3,N
1542779575.7,286047003.3,N
1542779595.5,286047005.6,Y
1542779615.4,286047000.6,P
1542779635.2,286047001.2,N
1542779655.0,286046999.4,N
1542779655.9,286046999.4,N
1542779675.8,286047000.1,N
1542779695.6,286047002.5,N
1542779715.5,286047002.5,N
1542779735.3,286046999.9,N
1542779755.1,286047002.3,N
1542779775.9,286047001.7,N
1542779795.7,286047003.7,N
1542779815.5,286047004.2,N
1542779835.4,286047004.0,N
1542779855.2,286047003.4,N
1542779875.1,286047004.1,N
1542779876.0,286047004.1,N
1542779895.8,286047003.0,N
1542779915.6,286047005.4,Y
1542779935.5,286047004.3,P
1542779955.3,286047001.8,N
1542779975.1,286047002.2,N
1542779995.9,286047002.1,N
